User: anonymous   Login
Location: Unspecified
(0.0000°N, 0.0000°E)
Time: 21:41:39
(UTC+00:00)
Language:

COSMOS 2463 - Orbit

View from above orbital plane
View from above orbital plane
View from above satellite
View from above satellite

Ground track
Ground track

The orbit data is extracted from the following two-line orbital elements,

1 36519U 10017A   17083.96844344 +.00000019 +00000-0 +41055-5 0  9994
2 36519 082.9619 205.9836 0037601 121.2158 239.2690 13.71409843345925
Epoch (UTC): 24 March 2017 23:14:33
Eccentricity: 0.0037601
inclination: 82.9619°
perigee height: 967 km
apogee height: 1022 km
right ascension of ascending node: 205.9836°
argument of perigee: 121.2158°
revolutions per day: 13.71409843
mean anomaly at epoch: 239.2690°
orbit number at epoch: 34592

The dashed part of the orbit path shows where the satellite is in the earth's shadow,  

DLR